| time (UTC) | temp F | wind direction | speed MPH | gust MPH | rain 1hr in | rain 24hr in | rain mn in | humidity % | barometer mb |
| 20260505224541 | 53 | 285 | 3.0 | 8.0 | 0.00 | 0.20 | 0.18 | 55 | 1007.4 |
| 20260505223040 | 53 | 264 | 3.0 | 12.0 | 0.00 | 0.20 | 0.18 | 55 | 1007.4 |
| 20260505221540 | 53 | 290 | 4.0 | 9.0 | 0.00 | 0.20 | 0.18 | 55 | 1007.5 |
| 20260505220036 | 53 | 224 | 3.0 | 10.0 | 0.00 | 0.20 | 0.18 | 56 | 1007.4 |
| 20260505214534 | 53 | 309 | 6.0 | 13.0 | 0.00 | 0.20 | 0.18 | 53 | 1007.4 |
| 20260505213032 | 53 | 302 | 5.0 | 9.0 | 0.00 | 0.20 | 0.18 | 60 | 1007.5 |
| 20260505211534 | 53 | 278 | 4.0 | 12.0 | 0.00 | 0.20 | 0.18 | 63 | 1007.3 |
| 20260505210038 | 53 | 280 | 3.0 | 6.0 | 0.00 | 0.20 | 0.18 | 71 | 1007.5 |
| 20260505204540 | 53 | 246 | 2.0 | 8.0 | 0.00 | 0.20 | 0.18 | 74 | 1007.5 |
| 20260505203035 | 52 | 248 | 2.0 | 8.0 | 0.00 | 0.20 | 0.18 | 75 | 1007.7 |
| 20260505201534 | 52 | 285 | 1.0 | 11.0 | 0.00 | 0.20 | 0.18 | 77 | 1007.5 |
| 20260505200035 | 52 | 279 | 2.0 | 7.0 | 0.00 | 0.20 | 0.18 | 77 | 1007.5 |
| 20260505194532 | 52 | 224 | 2.0 | 9.0 | 0.00 | 0.20 | 0.18 | 77 | 1007.5 |
| 20260505193032 | 51 | 274 | 2.0 | 7.0 | 0.00 | 0.20 | 0.18 | 78 | 1007.7 |
| 20260505191534 | 51 | 257 | 3.0 | 11.0 | 0.00 | 0.20 | 0.18 | 78 | 1008.0 |
| 20260505190036 | 50 | 243 | 4.0 | 8.0 | 0.00 | 0.20 | 0.18 | 79 | 1007.9 |
| 20260505184535 | 50 | 283 | 3.0 | 10.0 | 0.00 | 0.20 | 0.18 | 80 | 1007.7 |
| 20260505183036 | 51 | 307 | 4.0 | 12.0 | 0.00 | 0.20 | 0.18 | 81 | 1007.8 |
| 20260505181531 | 50 | 262 | 2.0 | 9.0 | 0.00 | 0.20 | 0.18 | 83 | 1007.5 |
| 20260505180045 | 49 | 254 | 4.0 | 9.0 | 0.01 | 0.20 | 0.18 | 83 | 1007.5 |
| 20260505174544 | 49 | 298 | 4.0 | 8.0 | 0.01 | 0.20 | 0.18 | 86 | 1007.5 |
| 20260505173032 | 48 | 218 | 3.0 | 8.0 | 0.02 | 0.20 | 0.18 | 87 | 1007.3 |
| 20260505171533 | 48 | 272 | 1.0 | 10.0 | 0.04 | 0.20 | 0.18 | 87 | 1006.9 |
| 20260505170032 | 49 | 274 | 1.0 | 5.0 | 0.06 | 0.19 | 0.17 | 87 | 1007.0 |
| 20260505164535 | 48 | 248 | 2.0 | 7.0 | 0.07 | 0.19 | 0.17 | 87 | 1007.2 |
| 20260505163035 | 48 | 241 | 3.0 | 11.0 | 0.06 | 0.18 | 0.16 | 85 | 1007.4 |
| 20260505161534 | 49 | 232 | 3.0 | 8.0 | 0.04 | 0.16 | 0.14 | 83 | 1007.6 |
| 20260505153033 | 53 | 300 | 5.0 | 16.0 | 0.00 | 0.12 | 0.10 | 69 | 1007.1 |
| 20260505151536 | 54 | 300 | 4.0 | 10.0 | 0.00 | 0.12 | 0.10 | 66 | 1006.8 |
| 20260505124539 | 57 | 238 | 3.0 | 9.0 | 0.00 | 0.12 | 0.10 | 72 | 1003.7 |
| 20260505123037 | 57 | 269 | 5.0 | 10.0 | 0.00 | 0.12 | 0.10 | 74 | 1003.7 |
| 20260505121535 | 56 | 274 | 4.0 | 9.0 | 0.00 | 0.12 | 0.10 | 79 | 1003.7 |
| 20260505120041 | 55 | 277 | 3.0 | 8.0 | 0.00 | 0.12 | 0.10 | 83 | 1003.9 |
| 20260505114535 | 55 | 288 | 2.0 | 11.0 | 0.00 | 0.12 | 0.10 | 87 | 1003.7 |
| 20260505113034 | 55 | 314 | 3.0 | 14.0 | 0.00 | 0.12 | 0.10 | 88 | 1003.1 |
| 20260505111532 | 55 | 283 | 4.0 | 10.0 | 0.00 | 0.12 | 0.10 | 88 | 1003.0 |
| 20260505101554 | 55 | 276 | 2.0 | 9.0 | 0.00 | 0.12 | 0.10 | 87 | 1002.0 |
| 20260505100054 | 55 | 241 | 3.0 | 7.0 | 0.00 | 0.12 | 0.10 | 87 | 1002.1 |
| 20260505094534 | 55 | 224 | 2.0 | 9.0 | 0.00 | 0.12 | 0.10 | 86 | 1001.9 |
| 20260505093031 | 55 | 244 | 3.0 | 9.0 | 0.00 | 0.12 | 0.10 | 86 | 1001.6 |
| 20260505091534 | 56 | 233 | 2.0 | 8.0 | 0.00 | 0.12 | 0.10 | 87 | 1001.7 |
| 20260505090034 | 56 | 225 | 6.0 | 13.0 | 0.00 | 0.12 | 0.10 | 87 | 1001.6 |
| 20260505084535 | 56 | 238 | 4.0 | 11.0 | 0.00 | 0.12 | 0.10 | 87 | 1001.3 |
| 20260505083035 | 55 | 283 | 4.0 | 10.0 | 0.00 | 0.12 | 0.10 | 89 | 1001.3 |
| 20260505081532 | 55 | 268 | 3.0 | 9.0 | 0.00 | 0.12 | 0.10 | 90 | 1001.1 |
| 20260505080035 | 55 | 219 | 1.0 | 4.0 | 0.00 | 0.12 | 0.10 | 90 | 1000.8 |
| 20260505074536 | 55 | 267 | 1.0 | 4.0 | 0.00 | 0.12 | 0.10 | 90 | 1000.8 |
| 20260505073038 | 55 | 129 | 0.0 | 5.0 | 0.00 | 0.12 | 0.10 | 90 | 1000.5 |
| 20260505071533 | 55 | 271 | 1.0 | 3.0 | 0.00 | 0.12 | 0.10 | 89 | 1000.4 |
| 20260505070032 | 56 | 263 | 0.0 | 3.0 | 0.00 | 0.12 | 0.10 | 88 | 999.9 |
| 20260505064531 | 56 | 246 | 0.0 | 3.0 | 0.00 | 0.12 | 0.10 | 88 | 1000.0 |
| 20260505063042 | 57 | 255 | 2.0 | 6.0 | 0.00 | 0.12 | 0.10 | 87 | 1000.7 |
| 20260505061539 | 57 | 285 | 4.0 | 14.0 | 0.00 | 0.12 | 0.10 | 87 | 1001.0 |
| 20260505060035 | 57 | 213 | 4.0 | 10.0 | 0.00 | 0.12 | 0.10 | 87 | 1001.2 |
| 20260505054543 | 57 | 238 | 3.0 | 11.0 | 0.00 | 0.12 | 0.10 | 86 | 1000.6 |
| 20260505053044 | 57 | 263 | 5.0 | 11.0 | 0.03 | 0.12 | 0.10 | 85 | 1000.3 |
| 20260505051543 | 57 | 241 | 2.0 | 14.0 | 0.07 | 0.12 | 0.10 | 85 | 1000.2 |
| 20260505041534 | 60 | 291 | 9.0 | 25.0 | 0.03 | 0.05 | 0.03 | 80 | 1001.7 |
| 20260505040040 | 64 | 256 | 5.0 | 12.0 | 0.00 | 0.02 | 0.00 | 72 | 1000.9 |
| 20260505034542 | 64 | 207 | 6.0 | 13.0 | 0.00 | 0.02 | 0.02 | 71 | 1000.5 |
| 20260505033032 | 64 | 197 | 5.0 | 13.0 | 0.00 | 0.02 | 0.02 | 71 | 1000.4 |
| 20260505031538 | 64 | 162 | 1.0 | 12.0 | 0.00 | 0.02 | 0.02 | 73 | 1000.3 |
| 20260505030038 | 64 | 342 | 6.0 | 16.0 | 0.00 | 0.02 | 0.02 | 73 | 1000.4 |
| 20260505024537 | 63 | 236 | 3.0 | 12.0 | 0.00 | 0.02 | 0.02 | 74 | 1000.5 |
| 20260505023042 | 62 | 195 | 2.0 | 8.0 | 0.00 | 0.02 | 0.02 | 76 | 1000.2 |
| 20260505021536 | 61 | 250 | 1.0 | 6.0 | 0.00 | 0.02 | 0.02 | 77 | 1000.4 |
| 20260505020037 | 62 | 145 | 2.0 | 11.0 | 0.00 | 0.02 | 0.02 | 76 | 1000.2 |
| 20260505014535 | 62 | 114 | 2.0 | 10.0 | 0.00 | 0.02 | 0.02 | 77 | 1000.0 |
| 20260505013033 | 62 | 189 | 3.0 | 10.0 | 0.00 | 0.02 | 0.02 | 76 | 1000.1 |
| 20260505011543 | 62 | 260 | 5.0 | 11.0 | 0.00 | 0.02 | 0.02 | 77 | 1000.0 |
| 20260505010101 | 61 | 263 | 2.0 | 11.0 | 0.00 | 0.02 | 0.02 | 81 | 999.8 |
| 20260505004536 | 60 | 262 | 2.0 | 5.0 | 0.02 | 0.02 | 0.02 | 83 | 999.6 |
| 20260505003045 | 60 | 202 | 2.0 | 6.0 | 0.02 | 0.02 | 0.02 | 84 | 999.5 |
| 20260505001534 | 60 | 238 | 2.0 | 6.0 | 0.02 | 0.02 | 0.02 | 84 | 999.5 |
| 20260505000044 | 60 | 226 | 2.0 | 8.0 | 0.02 | 0.02 | 0.02 | 83 | 999.6 |
| 20260504234536 | 61 | 178 | 4.0 | 13.0 | 0.00 | 0.00 | 0.00 | 79 | 1000.0 |
| 20260504233043 | 61 | 21 | 2.0 | 8.0 | 0.00 | 0.00 | 0.00 | 78 | 1000.0 |
| 20260504231532 | 65 | 160 | 7.0 | 31.0 | 0.00 | 0.00 | 0.00 | 70 | 999.9 |
| 20260504230045 | 74 | 147 | 6.0 | 14.0 | 0.00 | 0.00 | 0.00 | 50 | 999.4 |